FW0267 Weather Reports


time (UTC)temp
F
wind
direction
speed
knots
gust
knots
rain 1hr
in
rain 24hr
in
rain mn
in
humidity
%
barometer
mb
20260507164027 56 248 0.0 4.3 0.00 0.06 0.05 1 1012.1
20260507163525 55 261 0.0 7.0 0.00 0.06 0.05 1 1012.3
20260507163024 55 246 0.0 1.7 0.00 0.06 0.05 1 1012.1
20260507162521 55 246 0.0 1.7 0.00 0.06 0.05 1 1012.3
20260507162020 55 246 0.0 2.6 0.00 0.06 0.05 1 1012.0
20260507161518 55 140 0.0 1.7 0.00 0.06 0.05 1 1012.1
20260507161016 55 148 0.0 2.6 0.00 0.06 0.05 1 1012.2
20260507160516 55 151 0.0 2.6 0.00 0.06 0.05 1 1012.2
20260507160014 55 325 0.0 4.3 0.00 0.06 0.05 1 1012.2
20260507155513 55 326 0.0 4.3 0.00 0.06 0.05 1 1012.2
20260507155010 55 200 0.0 3.5 0.00 0.06 0.05 1 1012.2
20260507154510 56 332 0.0 2.6 0.00 0.06 0.05 1 1012.2
20260507154009 56 60 0.0 0.0 0.00 0.06 0.05 1 1012.2
20260507153506 56 60 0.0 0.0 0.00 0.06 0.05 1 1012.4
20260507153004 56 60 0.0 3.5 0.00 0.06 0.05 1 1012.3
20260507152504 56 61 0.9 3.5 0.00 0.06 0.05 1 1012.2
20260507152103 56 258 0.0 3.5 0.00 0.06 0.05 1 1012.2
20260507151601 56 280 0.9 2.6 0.00 0.06 0.05 1 1012.1
20260507151059 56 298 0.0 0.0 0.00 0.06 0.05 1 1012.2
20260507150557 56 298 0.0 0.0 0.00 0.06 0.05 1 1012.2
20260507150108 56 299 0.0 0.0 0.00 0.06 0.05 1 1012.3
20260507145556 56 299 0.0 0.0 0.00 0.12 0.05 1 1012.5
20260507145052 57 300 0.0 0.0 0.00 0.12 0.05 1 1012.3
20260507144551 57 300 0.0 0.0 0.00 0.12 0.05 1 1012.1
20260507144050 57 304 0.0 2.6 0.00 0.12 0.05 1 1011.8
20260507143548 57 304 0.0 2.6 0.00 0.12 0.05 1 1011.8
20260507143059 57 286 0.0 1.7 0.00 0.12 0.05 1 1012.1
20260507142545 57 286 0.0 1.7 0.00 0.12 0.05 1 1012.1
20260507142043 57 283 0.0 1.7 0.00 0.12 0.05 1 1012.1
20260507141542 57 282 0.0 3.5 0.00 0.12 0.05 1 1012.2
20260507141042 57 281 0.0 3.5 0.00 0.12 0.05 1 1012.3
20260507140540 57 270 0.0 4.3 0.00 0.12 0.05 1 1012.3
20260507140039 57 208 0.0 1.7 0.00 0.12 0.05 1 1012.4
20260507135539 57 208 0.0 1.7 0.00 0.12 0.05 1 1012.4
20260507135035 57 206 0.0 0.0 0.00 0.12 0.05 1 1012.3
20260507134534 57 206 0.0 1.7 0.00 0.12 0.05 1 1012.4
20260507134032 57 206 0.0 1.7 0.00 0.12 0.05 1 1012.4
20260507133533 57 206 0.0 2.6 0.00 0.12 0.05 1 1012.2
20260507133029 57 206 0.0 2.6 0.00 0.12 0.05 1 1012.2
20260507132527 57 296 0.0 1.7 0.00 0.12 0.05 1 1012.0
20260507132027 57 292 0.0 1.7 0.00 0.12 0.05 1 1012.1
20260507131528 57 331 0.0 3.5 0.00 0.12 0.05 1 1011.9
20260507131027 57 312 0.0 5.2 0.00 0.12 0.05 1 1012.1
20260507130522 57 328 0.0 5.2 0.00 0.12 0.05 1 1012.1
20260507130020 57 315 0.9 4.3 0.00 0.12 0.05 1 1011.7
20260507125520 57 296 0.0 2.6 0.00 0.12 0.05 1 1011.7
20260507125017 57 333 0.0 2.6 0.00 0.12 0.05 1 1012.1
20260507124516 57 132 0.0 2.6 0.00 0.12 0.05 1 1012.1
20260507124015 57 299 0.0 2.6 0.00 0.12 0.05 1 1011.9
20260507123514 56 300 0.0 2.6 0.00 0.12 0.05 1 1011.9
20260507123017 56 262 0.0 0.0 0.00 0.12 0.05 1 1012.1
20260507122510 56 259 0.0 1.7 0.00 0.12 0.05 1 1011.9
20260507122011 56 259 0.0 1.7 0.00 0.12 0.05 1 1011.7
20260507121507 56 223 0.0 1.7 0.00 0.12 0.05 1 1011.6
20260507121006 56 223 0.0 2.6 0.00 0.12 0.05 1 1011.8
20260507120504 56 223 0.0 2.6 0.00 0.12 0.05 1 1011.7
20260507120003 56 223 0.0 0.0 0.00 0.12 0.05 1 1011.8
20260507115503 56 223 0.0 0.0 0.00 0.12 0.05 1 1011.8
20260507115100 56 223 0.0 0.0 0.00 0.12 0.05 1 1011.9
20260507114601 56 223 0.0 2.6 0.00 0.12 0.05 1 1012.1
20260507114057 56 223 0.0 2.6 0.00 0.12 0.05 1 1012.1
20260507113556 56 322 0.0 0.9 0.00 0.12 0.05 1 1012.0
20260507113054 57 322 0.0 0.9 0.00 0.12 0.05 1 1011.8
20260507112554 57 325 0.0 0.0 0.00 0.12 0.05 1 1011.7
20260507112054 57 325 0.0 0.0 0.00 0.12 0.05 1 1011.7
20260507111550 57 325 0.0 0.0 0.00 0.12 0.05 1 1011.3
20260507111047 57 325 0.0 0.0 0.00 0.12 0.05 1 1011.3
20260507110546 57 325 0.0 0.0 0.00 0.12 0.05 1 1011.7
20260507110056 57 325 0.0 0.0 0.00 0.12 0.05 1 1011.7
20260507105544 57 325 0.0 0.0 0.01 0.12 0.05 1 1011.5
20260507105042 57 325 0.0 0.0 0.01 0.12 0.05 1 1011.4
20260507104548 57 325 0.0 0.0 0.01 0.12 0.05 1 1011.4
20260507104039 57 325 0.0 0.0 0.02 0.12 0.05 1 1011.2
20260507103541 57 325 0.0 1.7 0.02 0.12 0.05 1 1011.2
20260507103055 57 321 0.0 0.0 0.02 0.12 0.05 1 1011.1
20260507102534 57 321 0.0 0.0 0.02 0.12 0.05 1 1010.9
20260507102033 58 321 0.0 0.0 0.02 0.12 0.05 1 1010.8
20260507101535 58 339 0.0 0.0 0.02 0.12 0.05 1 1010.9
20260507101032 58 339 0.0 0.0 0.02 0.12 0.05 1 1010.9
20260507100529 58 344 0.0 0.0 0.02 0.12 0.05 1 1011.0
20260507100029 58 344 0.0 0.0 0.03 0.12 0.05 1 1011.2
20260507095526 58 344 0.0 1.7 0.02 0.11 0.04 1 1011.2
20260507095025 59 344 0.0 3.5 0.03 0.11 0.04 1 1011.2
20260507094523 59 355 0.9 3.5 0.03 0.11 0.04 1 1010.9
20260507094021 59 327 0.0 2.6 0.03 0.10 0.03 1 1010.8
20260507093523 59 327 0.0 3.5 0.03 0.10 0.03 1 1011.1
20260507093018 59 327 0.0 1.7 0.03 0.10 0.03 1 1011.2
20260507092517 60 327 0.9 1.7 0.03 0.10 0.03 1 1011.0
20260507092016 60 327 0.0 5.2 0.03 0.10 0.03 1 1011.1
20260507091514 60 327 0.0 5.2 0.03 0.10 0.03 1 1011.0
20260507091012 61 141 0.0 3.5 0.03 0.10 0.03 1 1010.9
20260507090510 61 289 0.0 2.6 0.03 0.10 0.03 1 1010.8
20260507090011 62 328 0.0 4.3 0.02 0.09 0.02 1 1010.8
20260507085508 62 322 0.0 7.0 0.02 0.09 0.02 1 1010.8
20260507085010 63 328 0.9 7.0 0.01 0.08 0.01 1 1010.7
20260507084519 64 274 0.9 4.3 0.00 0.07 0.00 1 1010.8
20260507084004 65 191 0.9 4.3 0.00 0.07 0.00 1 1010.5
20260507083502 66 334 0.9 5.2 0.00 0.07 0.00 1 1010.4
20260507082601 67 319 0.0 2.6 0.00 0.07 0.00 1 1009.9
20260507082101 68 210 0.0 0.0 0.00 0.07 0.00 1 1010.0
20260507081559 68 210 0.0 0.0 0.00 0.07 0.00 1 1010.1
20260507081055 68 210 0.0 0.0 0.00 0.07 0.00 1 1010.1
20260507080553 68 210 0.0 0.0 0.00 0.07 0.00 1 1010.1
20260507080055 68 210 0.0 0.0 0.00 0.07 0.00 1 1010.0
20260507075554 68 210 0.0 0.0 0.00 0.07 0.00 1 1009.9
20260507075051 68 210 0.0 0.0 0.00 0.07 0.00 1 1009.5
20260507074552 68 210 0.0 0.0 0.00 0.07 0.00 1 1009.2
20260507074047 68 210 0.0 0.0 0.00 0.07 0.00 1 1009.4
20260507073546 69 210 0.0 0.0 0.00 0.07 0.00 1 1009.5
20260507073045 69 210 0.0 0.0 0.00 0.07 0.00 1 1009.6
20260507072543 69 210 0.0 0.0 0.00 0.07 0.00 1 1009.4
20260507072041 69 210 0.0 0.0 0.00 0.07 0.00 1 1009.6
20260507071541 69 210 0.0 2.6 0.00 0.07 0.00 1 1009.3
20260507071038 69 210 0.9 2.6 0.00 0.07 0.00 1 1009.8
20260507070537 69 210 0.0 2.6 0.00 0.07 0.00 1 1009.7
20260507070053 69 209 0.9 3.5 0.00 0.07 0.00 1 1009.7
20260507065534 69 192 0.9 2.6 0.00 0.07 0.00 1 1009.3
20260507065033 69 192 0.0 2.6 0.00 0.07 0.00 1 1009.4
20260507064531 69 192 0.9 2.6 0.00 0.07 0.00 1 1009.5
20260507064030 69 192 0.0 2.6 0.00 0.07 0.00 1 1009.4
20260507063529 69 190 0.0 1.7 0.00 0.07 0.00 1 1009.3
20260507063027 69 193 0.0 2.6 0.00 0.07 0.00 1 1009.1
20260507062524 69 193 0.0 2.6 0.00 0.07 0.00 1 1009.1
20260507062024 69 153 0.0 0.0 0.00 0.07 0.00 1 1009.1
20260507061522 69 153 0.0 3.5 0.00 0.07 0.00 1 1008.9
20260507061020 69 153 0.0 3.5 0.00 0.07 0.00 1 1008.9
20260507060518 69 193 0.0 0.0 0.00 0.07 0.00 1 1008.9
20260507060021 69 197 0.0 0.0 0.00 0.07 0.00 1 1009.0
20260507055516 69 196 0.0 0.0 0.00 0.07 0.00 1 1008.9
20260507055014 69 196 0.0 1.7 0.00 0.07 0.00 1 1009.1
20260507054512 69 196 0.0 1.7 0.00 0.07 0.00 1 1009.4
20260507054015 69 196 0.0 0.0 0.00 0.07 0.00 1 1009.3
20260507053510 69 196 0.0 0.0 0.00 0.07 0.00 1 1009.1
20260507053009 69 199 0.0 0.9 0.00 0.07 0.00 1 1009.1
20260507052507 69 199 0.0 2.6 0.00 0.07 0.00 1 1009.2
20260507052005 69 199 0.0 1.7 0.00 0.07 0.00 1 1009.4
20260507051504 69 199 0.0 1.7 0.00 0.07 0.00 1 1009.6
20260507051002 69 199 0.0 2.6 0.00 0.07 0.00 1 1009.7
20260507050502 69 199 0.0 2.6 0.00 0.07 0.00 1 1009.9
20260507050100 69 199 0.0 4.3 0.00 0.07 0.00 1 1010.1
20260507045559 69 162 0.9 4.3 0.00 0.07 0.00 1 1010.2
20260507045057 69 209 0.9 3.5 0.00 0.07 0.00 1 1010.3
20260507044559 69 208 1.7 3.5 0.00 0.07 0.00 1 1010.3
20260507044056 69 207 1.7 4.3 0.00 0.07 0.00 1 1010.2
20260507043553 69 201 2.6 4.3 0.00 0.07 0.00 1 1010.2
20260507043052 69 218 1.7 5.2 0.00 0.07 0.00 1 1010.4
20260507042553 69 173 1.7 2.6 0.00 0.07 0.00 1 1010.4
20260507042048 69 211 0.9 3.5 0.00 0.07 0.00 1 1010.5
20260507041559 69 211 0.0 3.5 0.00 0.07 0.00 1 1010.4
20260507041045 69 209 0.9 2.6 0.00 0.07 0.00 1 1010.4
20260507040544 69 210 0.0 1.7 0.00 0.07 0.00 1 1010.2
20260507040044 69 211 0.0 2.6 0.00 0.07 0.00 1 1010.2
20260507035542 69 211 0.0 3.5 0.00 0.07 0.07 1 1010.1
20260507035042 68 216 0.9 3.5 0.00 0.07 0.07 1 1010.4
20260507034542 68 189 0.0 2.6 0.00 0.07 0.07 1 1010.4
20260507034041 68 187 0.9 2.6 0.00 0.07 0.07 1 1010.5
20260507033541 68 188 0.0 2.6 0.00 0.07 0.07 1 1010.3
20260507033042 68 182 0.0 1.7 0.00 0.07 0.07 1 1010.4
20260507032542 68 182 0.0 1.7 0.00 0.07 0.07 1 1010.0
20260507032041 68 188 0.0 2.6 0.00 0.07 0.07 1 1010.0
20260507031542 68 192 0.0 2.6 0.00 0.07 0.07 1 1009.8
20260507031041 68 192 0.0 1.7 0.00 0.07 0.07 1 1009.9
20260507030541 68 192 0.0 2.6 0.00 0.07 0.07 1 1010.0
20260507030041 68 192 0.0 2.6 0.00 0.07 0.07 1 1010.0
20260507025540 68 192 0.0 7.8 0.00 0.07 0.07 1 1009.9
20260507025040 68 192 0.9 7.8 0.00 0.07 0.07 1 1009.8
20260507024540 68 144 0.0 2.6 0.00 0.07 0.07 1 1009.8
20260507024040 68 143 0.0 0.0 0.00 0.07 0.07 1 1009.9
20260507023539 68 143 0.0 3.5 0.00 0.07 0.07 1 1010.1
20260507023039 68 143 0.9 3.5 0.00 0.07 0.07 1 1010.1
20260507022539 68 164 0.0 1.7 0.00 0.07 0.07 1 1010.1
20260507022040 68 164 0.0 1.7 0.00 0.07 0.07 1 1010.2
20260507021540 68 164 0.0 3.5 0.00 0.07 0.07 1 1010.3
20260507021038 68 164 0.9 3.5 0.00 0.07 0.07 1 1010.2
20260507020537 68 146 0.0 0.0 0.00 0.07 0.07 1 1010.4
20260507020041 68 146 0.0 4.3 0.00 0.07 0.07 1 1010.5
20260507015533 68 146 0.0 4.3 0.00 0.07 0.07 1 1010.5
20260507015032 68 166 0.0 1.7 0.00 0.07 0.07 1 1010.4
20260507014532 68 166 0.0 1.7 0.00 0.07 0.07 1 1010.5
20260507014029 68 166 0.0 1.7 0.00 0.07 0.07 1 1010.4
20260507013527 68 166 0.0 0.0 0.00 0.07 0.07 1 1010.4
20260507013026 68 166 0.0 0.0 0.00 0.07 0.07 1 1010.3
20260507012525 68 166 0.0 0.0 0.00 0.07 0.07 1 1010.3
20260507012025 68 166 0.0 0.0 0.00 0.07 0.07 1 1010.2
20260507011524 68 166 0.0 0.0 0.00 0.07 0.07 1 1010.3
20260507011020 69 166 0.0 0.0 0.00 0.07 0.07 1 1010.3
20260507010522 69 166 0.0 1.7 0.00 0.07 0.07 1 1010.2
20260507010024 69 166 0.0 1.7 0.00 0.07 0.07 1 1010.2
20260507005516 69 160 0.0 0.0 0.00 0.07 0.07 1 1010.2
20260507005014 69 160 0.0 0.0 0.00 0.07 0.07 1 1010.2
20260507004513 69 160 0.0 0.0 0.00 0.07 0.07 1 1010.1
20260507004012 69 160 0.0 0.0 0.00 0.07 0.07 1 1010.3
20260507003511 69 160 0.0 0.0 0.00 0.07 0.07 1 1010.2
20260507003008 69 160 0.0 0.0 0.00 0.07 0.07 1 1010.4
20260507002507 69 160 0.0 0.0 0.00 0.07 0.07 1 1010.3
20260507002006 70 160 0.0 0.0 0.00 0.07 0.07 1 1010.3
20260507001506 70 160 0.0 0.0 0.00 0.07 0.07 1 1010.4
20260507001006 70 160 0.0 0.9 0.00 0.07 0.07 1 1010.5
20260507000506 70 160 0.0 2.6 0.00 0.07 0.07 1 1010.5
20260507000007 70 160 0.0 2.6 0.00 0.07 0.07 1 1010.4
20260506235507 70 159 0.0 2.6 0.00 0.07 0.07 1 1010.3
20260506235003 70 159 0.9 2.6 0.00 0.07 0.07 1 1010.2
20260506234505 70 121 0.0 1.7 0.00 0.07 0.07 1 1010.2
20260506234004 70 121 0.9 3.5 0.00 0.07 0.07 1 1010.1
20260506233504 70 115 0.0 3.5 0.00 0.07 0.07 1 1009.9
20260506233003 70 197 0.0 0.0 0.00 0.07 0.07 1 1010.0
20260506232504 70 197 0.0 2.6 0.00 0.07 0.07 1 1010.1
20260506232003 70 197 0.0 3.5 0.00 0.07 0.07 1 1010.0
20260506231506 71 197 0.9 3.5 0.00 0.07 0.07 1 1010.0
20260506231003 71 222 0.0 0.0 0.00 0.07 0.07 1 1010.1
20260506230500 71 222 0.0 1.7 0.00 0.07 0.07 1 1009.9
20260506230105 71 222 0.0 2.6 0.00 0.07 0.07 1 1010.0
20260506225558 70 222 0.0 2.6 0.00 0.07 0.07 1 1010.1
20260506225056 70 223 0.0 0.0 0.00 0.07 0.07 1 1010.1
20260506224555 70 223 0.0 2.6 0.00 0.07 0.07 1 1010.0
20260506224053 70 223 0.9 2.6 0.00 0.07 0.07 1 1010.1
20260506223552 70 223 0.0 2.6 0.00 0.07 0.07 1 1010.0
20260506223051 70 223 0.9 4.3 0.00 0.07 0.07 1 1010.0
20260506222551 70 223 0.9 4.3 0.00 0.07 0.07 1 1010.0
20260506222047 71 140 0.0 2.6 0.00 0.07 0.07 1 1010.0
20260506221555 71 136 0.0 2.6 0.00 0.07 0.07 1 1010.0
20260506221045 71 136 0.0 3.5 0.00 0.07 0.07 1 1010.0
20260506220544 70 134 0.9 3.5 0.00 0.07 0.07 1 1009.9
20260506220046 70 238 0.0 3.5 0.00 0.07 0.07 1 1009.9
20260506215541 70 238 0.9 3.5 0.00 0.07 0.07 1 1009.9
20260506215041 71 244 0.9 3.5 0.00 0.07 0.07 1 1009.8
20260506214538 71 217 0.0 3.5 0.00 0.07 0.07 1 1009.9
20260506214037 71 217 1.7 6.1 0.00 0.07 0.07 1 1009.9
20260506213536 71 240 1.7 6.1 0.00 0.07 0.07 1 1010.0
20260506213041 71 252 0.9 3.5 0.00 0.07 0.07 1 1010.1
20260506212532 71 236 1.7 3.5 0.00 0.07 0.07 1 1010.1
20260506212034 71 275 0.9 4.3 0.00 0.07 0.07 1 1010.2
20260506211539 71 236 0.9 4.3 0.00 0.07 0.07 1 1010.2
20260506211028 71 250 0.9 3.5 0.00 0.07 0.07 1 1010.1
20260506210526 70 136 0.9 3.5 0.00 0.07 0.07 1 1010.1
20260506210033 70 146 0.9 3.5 0.00 0.07 0.07 1 1009.9
20260506205523 70 209 0.0 3.5 0.00 0.07 0.07 1 1009.9
20260506205021 70 209 0.9 4.3 0.00 0.07 0.07 1 1010.0
20260506204523 70 209 0.9 4.3 0.00 0.07 0.07 1 1010.0
20260506204019 70 133 0.9 4.3 0.00 0.07 0.07 1 1010.0
20260506203517 70 201 0.0 2.6 0.00 0.07 0.07 1 1010.0
20260506203015 69 142 0.0 2.6 0.00 0.07 0.07 1 1009.9
20260506202514 69 142 0.0 1.7 0.00 0.07 0.07 1 1010.0
20260506202015 69 142 0.0 0.0 0.00 0.07 0.07 1 1010.0
20260506201512 69 142 0.0 1.7 0.00 0.07 0.07 1 1010.2
20260506201010 69 140 0.0 1.7 0.00 0.07 0.07 1 1010.2
20260506200508 69 139 0.0 2.6 0.00 0.07 0.07 1 1009.8
20260506200010 68 139 0.0 2.6 0.00 0.07 0.07 1 1010.1
20260506195509 68 139 0.0 2.6 0.00 0.07 0.07 1 1009.7
20260506195006 68 148 0.0 4.3 0.00 0.07 0.07 1 1009.4
20260506194503 68 148 0.9 4.3 0.00 0.07 0.07 1 1009.4
20260506194001 68 192 0.0 2.6 0.01 0.07 0.07 1 1009.3
20260506193559 68 204 0.0 2.6 0.01 0.07 0.07 1 1009.3
20260506193059 67 204 0.0 2.6 0.01 0.07 0.07 1 1009.5
20260506192556 67 174 0.0 2.6 0.01 0.07 0.07 1 1009.7
20260506192056 67 174 0.9 3.5 0.01 0.07 0.07 1 1009.8
20260506191600 67 173 0.9 2.6 0.01 0.07 0.07 1 1010.0
20260506191053 67 169 0.0 4.3 0.01 0.07 0.07 1 1010.2
20260506190552 66 253 0.0 2.6 0.01 0.07 0.07 1 1010.3
20260506190051 66 253 0.0 2.6 0.01 0.07 0.07 1 1010.5
20260506185547 66 253 0.9 2.6 0.01 0.07 0.07 1 1010.6
20260506185046 66 253 0.0 6.1 0.01 0.07 0.07 1 1010.4
20260506184545 66 205 0.9 7.0 0.01 0.07 0.07 1 1010.3
20260506184045 66 214 0.9 6.1 0.00 0.06 0.06 1 1010.7
20260506183542 66 211 1.7 6.1 0.00 0.06 0.06 1 1010.4
20260506183041 66 229 1.7 8.7 0.00 0.06 0.06 1 1010.8
20260506182539 66 211 0.0 3.5 0.00 0.06 0.06 1 1011.0
20260506182037 66 211 1.7 3.5 0.00 0.06 0.06 1 1011.1
20260506181546 66 234 0.9 2.6 0.00 0.06 0.06 1 1011.2
20260506181035 66 215 0.9 3.5 0.00 0.06 0.06 1 1011.3
20260506180534 66 215 0.9 3.5 0.00 0.06 0.06 1 1011.3
20260506180032 66 207 1.7 6.1 0.00 0.06 0.06 1 1011.3
20260506175530 66 183 1.7 5.2 0.00 0.06 0.06 1 1011.4
20260506175028 66 203 1.7 7.0 0.00 0.06 0.06 1 1011.4
20260506174532 66 243 0.9 4.3 0.00 0.06 0.06 1 1011.4
20260506174028 66 236 0.9 7.0 0.00 0.06 0.06 1 1011.5
20260506173527 66 236 0.9 7.0 0.00 0.06 0.06 1 1011.5
20260506173040 66 61 0.9 4.3 0.00 0.06 0.06 1 1011.4
20260506172521 66 232 0.9 4.3 0.00 0.06 0.06 1 1011.3
20260506172020 66 236 0.9 3.5 0.00 0.06 0.06 1 1011.4
20260506171520 65 225 0.0 4.3 0.00 0.06 0.06 1 1011.3
20260506171019 65 225 0.9 4.3 0.00 0.06 0.06 1 1011.3
20260506170515 65 115 0.0 4.3 0.00 0.06 0.06 1 1011.3
20260506170013 65 180 0.0 5.2 0.00 0.06 0.06 1 1011.7
20260506165515 65 233 0.9 5.2 0.00 0.06 0.06 1 1011.9
20260506165010 65 202 1.7 5.2 0.00 0.06 0.06 1 1011.6
20260506164510 65 200 0.9 4.3 0.00 0.06 0.06 1 1011.4